Wetbulb
50.19 50.07 50.01 50.34 50.05 49.95 46.43 39.74 31.80 43.55 43.82 31.82 32.62 27.71 30.22 34.43 31.73 33.64 30.84 30.51 28.67 26.67 26.22 24.95 25.62 26.61 29.50 34.13 31.64 28.26 30.46 25.74 21.54 24.09 28.84 29.82 27.48 23.67 23.86 14.59 10.15 19.39 15.79 11.15
49.90 49.58 49.29 49.06 48.86 48.57 41.95 36.23 35.39 43.60 41.40 26.74 27.02 30.90 30.31 31.77 30.06 29.43 28.36 26.61 29.04 28.57 24.59 20.71 26.43 27.45 31.30 29.75 28.67 26.79 28.02 23.30 15.09 18.50 22.14 25.90 21.42 22.47 23.86 18.69 14.81 8.47 11.49 13.45
49.56 49.32 48.37 48.06 48.08 47.96 43.12 36.29 30.87 35.90 37.07 34.15 29.67 27.63 26.95 26.78 32.17 29.15 30.05 27.77 28.72 26.39 24.18 25.96 21.61 22.57 28.20 29.70 27.90 31.02 29.42 23.20 19.64 11.23 17.30 22.76 19.49 22.21 23.64 19.74 11.06 11.18 11.64 15.52
48.23 48.27 47.76 47.63 47.53 47.13 42.88 35.06 31.00 34.29 26.81 28.45 29.41 29.96 27.85 25.42 24.94 29.59 29.65 25.36 25.77 23.12 19.80 17.69 18.82 23.36 23.50 25.80 28.40 27.25 25.63 16.30 18.93 20.08 21.00 21.79 19.98 19.92 19.34 14.75 15.74 10.28 14.53 16.58
47.97 47.80 47.61 47.15 47.16 46.79 40.05 33.14 31.47 34.06 31.56 32.47 28.72 29.71 26.52 25.14 26.84 27.07 23.90 22.82 25.06 22.36 20.81 19.90 14.67 16.85 18.18 16.94 20.54 24.38 24.94 17.11 19.81 16.59 21.19 21.18 17.98 20.36 19.40 19.99 20.01 17.72 18.41 17.30
47.53 47.74 46.89 46.68 46.76 45.69 38.39 38.03 36.90 33.47 29.77 28.16 27.30 26.46 27.50 28.09 28.81 29.05 29.30 27.16 23.06 21.36 24.56 26.55 27.72 28.88 26.23 24.95 19.71 19.11 22.36 18.75 17.75 11.92 19.70 18.42 9.03 15.54 19.23 18.69 21.22 20.48 13.70 21.03
47.31 46.88 46.52 46.52 46.67 45.51 41.65 39.66 36.87 30.08 25.86 28.21 27.36 28.91 29.15 28.03 28.78 26.89 29.06 29.55 24.55 27.82 31.18 30.52 28.27 26.62 25.88 25.44 24.60 26.10 21.35 16.68 17.24 13.67 15.45 0.73 16.93 22.86 22.45 20.25 21.67 22.56 22.42 24.96
46.42 46.60 46.52 46.43 46.50 46.53 42.60 41.92 35.37 30.97 25.79 29.80 29.01 28.79 29.51 30.18 30.70 27.98 27.47 29.02 29.95 32.13 27.04 17.71 12.84 16.14 18.63 21.79 22.72 23.67 22.32 19.26 14.13 13.19 8.91 14.38 19.06 20.27 19.80 18.10 17.33 22.03 21.35 24.99
46.85 46.03 46.02 46.10 45.91 46.07 43.30 41.87 41.59 32.95 28.73 26.02 30.36 27.96 27.66 25.43 27.13 26.17 27.07 28.78 30.42 28.40 24.37 19.50 10.54 10.74 14.44 14.48 17.65 22.70 24.09 23.10 17.68 12.80 1.65 3.85 15.86 19.20 23.02 22.38 10.55 20.32 22.95 22.81
45.33 45.48 45.28 45.32 45.27 44.95 42.83 41.22 42.78 35.28 29.40 31.60 31.29 27.77 27.79 29.87 27.58 23.81 25.47 24.65 24.23 27.35 20.66 16.62 14.88 13.92 18.10 10.92 12.96 15.36 17.60 16.56 11.31 10.16 6.19 12.20 19.60 19.80 23.04 9.14 12.84 22.42 24.84 23.96
45.55 45.39 45.14 45.03 44.78 44.82 43.03 40.56 42.33 36.58 31.49 31.02 33.61 34.35 30.79 30.36 28.38 22.45 24.90 24.87 23.38 23.36 17.47 17.31 17.30 14.04 19.28 14.56 18.85 16.76 14.33 10.99 11.51 11.08 7.36 5.20 21.34 18.99 13.43 16.14 25.72 23.49 22.43 22.50
45.71 45.45 45.23 45.16 45.18 45.24 44.38 38.64 42.25 41.79 34.03 32.28 35.01 35.65 36.77 35.76 34.73 30.72 29.58 24.28 24.40 25.42 21.40 20.43 19.07 17.32 16.81 15.79 10.70 20.32 12.73 17.73 13.38 19.47 16.63 21.65 23.53 19.73 26.40 26.43 19.24 24.47 22.34 23.71
45.72 45.52 45.48 45.21 45.01 44.77 43.35 40.00 39.79 37.86 31.69 30.11 31.79 31.66 31.88 32.89 32.40 34.40 27.81 26.65 30.88 27.25 29.36 25.75 23.23 15.76 20.10 12.80 15.03 15.93 20.20 23.82 13.70 15.82 21.45 23.27 23.42 25.32 21.40 19.37 19.81 22.69 22.43 20.54
45.47 45.61 45.31 44.94 44.69 44.32 43.37 39.27 40.23 36.93 31.24 23.63 26.71 32.71 27.22 30.47 31.25 32.56 34.31 31.99 31.61 31.12 28.32 22.74 22.54 18.95 23.45 18.20 19.81 18.86 21.84 19.78 16.02 15.75 20.47 20.33 24.17 22.78 18.34 18.37 20.35 21.94 21.52 20.98
45.21 45.09 44.83 44.52 43.93 43.37 41.27 39.59 39.36 39.77 32.69 24.41 25.53 27.93 25.89 28.53 28.92 29.24 30.67 30.37 28.65 28.11 23.49 21.34 19.25 24.07 22.57 21.55 19.83 17.09 22.28 21.37 18.86 17.88 21.73 20.86 16.76 18.16 19.99 15.72 18.17 22.55 20.30 18.28
44.91 44.52 44.13 42.39 43.10 41.65 38.29 30.18 36.42 38.75 37.06 27.29 22.80 26.09 24.40 25.88 26.69 25.91 24.91 27.00 26.75 26.96 25.85 23.59 23.82 25.00 22.92 14.07 15.15 18.49 21.02 21.18 18.72 18.81 16.36 15.35 16.47 18.25 17.68 17.36 21.61 21.86 14.80 16.25
44.45 44.33 43.10 43.20 42.31 38.85 32.27 30.35 35.68 38.87 37.02 28.43 20.38 23.35 23.81 24.39 24.28 24.28 24.73 25.22 25.13 25.03 24.99 22.73 22.16 21.11 21.83 15.57 13.07 17.43 20.27 21.27 19.51 16.90 14.22 14.78 15.14 12.20 15.60 19.71 20.38 21.69 17.38 16.79
43.95 43.67 43.94 42.49 41.30 38.60 33.68 35.63 39.74 38.10 32.55 25.87 18.14 18.63 20.02 23.86 21.07 20.73 22.12 22.61 21.12 19.76 20.06 21.42 17.94 19.04 17.87 11.45 18.68 18.10 19.96 19.65 18.05 16.62 14.78 11.51 13.89 15.98 14.43 15.71 16.24 15.35 14.77 14.20
42.40 41.86 40.78 36.45 33.50 31.27 32.72 37.55 37.18 33.73 30.53 21.17 17.12 18.85 17.21 22.88 20.43 20.64 21.19 19.81 16.96 19.57 18.51 14.70 16.13 16.05 11.62 15.97 13.24 15.13 15.92 14.53 14.46 17.22 16.49 15.73 14.74 14.73 14.20 12.97 12.66 9.70 11.94 11.21
40.69 36.28 31.69 27.37 31.83 38.03 35.78 28.48 24.25 23.15 21.48 21.36 20.21 21.94 20.32 20.91 20.56 19.62 16.85 15.51 13.27 13.31 13.05 14.01 12.23 15.39 17.41 16.09 15.68 14.21 14.16 15.06 14.61 10.49 9.94 10.49 11.19 12.39 9.83 7.54 6.90 6.01 5.91 8.88
33.41 28.17 27.55 31.97 36.19 28.33 22.97 15.94 14.77 14.20 13.12 16.72 19.03 16.14 16.48 20.27 15.13 15.20 14.84 13.70 13.66 9.95 12.75 10.81 12.62 10.18 14.91 16.69 16.07 17.28 15.51 14.92 14.10 10.64 10.09 7.70 5.78 4.07 5.63 8.47 8.00 8.18 7.31 3.39
32.62 30.67 31.27 28.22 23.20 18.82 13.31 9.43 13.61 12.82 10.68 15.78 15.62 17.91 17.14 18.38 18.35 16.88 13.99 11.89 13.26 8.48 15.80 9.35 8.89 14.11 16.05 16.05 15.68 14.59 12.67 11.88 10.81 8.80 6.36 4.29 6.42 4.54 6.17 6.17 7.42 5.97 5.25 4.79
31.69 26.56 20.00 19.68 16.63 11.68 8.89 6.21 11.25 11.48 17.03 22.79 21.28 17.25 16.93 18.01 17.60 13.93 12.77 10.03 10.18 16.96 8.32 10.52 12.29 16.59 16.75 13.77 14.98 14.56 15.08 13.20 12.69 10.94 10.21 10.32 8.28 10.95 7.90 7.63 6.95 7.28 6.09 4.09
22.55 17.99 13.30 12.73 11.77 14.01 16.36 14.92 14.54 17.15 19.45 22.41 21.05 19.54 14.49 15.52 13.26 11.77 7.43 12.76 12.57 7.78 8.35 13.21 14.55 14.62 15.24 16.07 16.89 13.77 10.96 10.79 9.22 8.50 8.68 10.01 9.54 5.83 7.37 6.25 6.16 7.44 5.83 2.50
19.62 18.36 11.37 13.10 18.75 17.00 15.55 14.91 15.22 16.68 16.87 21.57 20.13 15.37 14.37 11.48 6.05 8.46 6.86 4.59 3.79 11.05 12.03 14.98 14.45 13.98 12.66 12.13 12.63 10.32 9.00 6.97 5.79 5.13 6.84 8.95 6.78 5.44 4.67 4.86 3.93 5.39 4.90 4.22
19.54 16.87 14.86 18.49 15.28 15.09 13.60 14.37 21.90 16.96 18.27 15.83 14.95 9.35 6.22 2.90 1.06 0.39 0.96 2.75 4.52 14.12 19.19 21.92 21.08 14.42 12.37 11.37 10.77 9.59 8.81 7.58 7.97 6.27 6.30 7.61 6.16 8.79 8.62 7.18 7.02 5.17 5.89 4.90
16.51 16.49 19.87 17.05 16.12 15.42 15.89 22.93 22.46 15.19 18.08 14.80 7.50 2.13 3.07 2.44 -0.93 0.65 7.99 3.84 10.12 12.22 13.81 16.28 22.55 14.03 11.92 12.75 12.14 10.13 8.12 8.37 6.26 4.55 4.38 6.34 8.24 9.54 9.06 7.97 7.32 5.94 7.28 5.88
MSLP
1022.70 1022.15 1021.46 1020.79 1020.09 1019.46 1018.69 1018.23 1016.68 1014.14 1014.08 1013.60 1012.74 1013.37 1013.65 1013.59 1013.26 1013.37 1013.22 1013.07 1013.02 1013.23 1013.20 1013.05 1012.90 1012.60 1013.35 1013.61 1013.44 1013.05 1012.97 1012.84 1012.16 1011.66 1011.72 1011.67 1011.87 1012.57 1013.24 1014.03 1014.96 1015.48 1015.96 1015.94
1022.48 1021.98 1021.31 1020.75 1020.17 1019.69 1019.56 1018.51 1017.06 1014.48 1014.33 1014.13 1013.98 1013.99 1014.05 1013.81 1013.61 1013.75 1013.84 1014.02 1014.13 1014.40 1014.51 1014.41 1013.85 1014.01 1014.69 1014.78 1014.63 1014.59 1014.61 1013.77 1013.18 1012.43 1012.84 1012.73 1013.01 1013.51 1013.98 1014.65 1015.57 1016.25 1016.45 1015.80
1022.04 1021.57 1021.08 1020.60 1020.17 1019.75 1020.02 1019.22 1017.30 1014.98 1014.58 1014.77 1015.02 1015.04 1014.56 1014.09 1014.13 1014.22 1014.33 1014.47 1014.52 1014.83 1014.89 1014.92 1015.00 1014.78 1014.78 1014.88 1014.91 1014.84 1015.25 1014.82 1014.19 1013.63 1012.93 1013.16 1013.84 1013.97 1014.36 1014.87 1015.79 1015.87 1015.62 1015.25
1021.62 1021.10 1020.63 1020.14 1019.78 1019.65 1019.91 1019.55 1017.81 1016.48 1015.92 1015.49 1015.38 1015.21 1015.07 1014.53 1014.28 1014.23 1014.30 1014.55 1014.67 1015.15 1015.59 1015.52 1015.43 1015.20 1015.23 1015.15 1015.16 1015.03 1015.19 1015.03 1014.61 1013.88 1013.42 1013.09 1013.20 1013.65 1013.94 1014.49 1014.92 1015.36 1015.25 1015.06
1021.16 1020.81 1020.28 1020.07 1019.56 1019.38 1019.49 1019.28 1018.67 1017.58 1016.90 1016.39 1015.89 1015.35 1015.06 1014.54 1014.05 1014.18 1014.49 1014.60 1014.82 1015.25 1015.72 1015.67 1015.66 1015.72 1015.78 1015.75 1015.52 1015.41 1015.32 1015.15 1014.59 1014.11 1013.50 1013.09 1013.04 1012.95 1013.08 1013.43 1013.84 1014.09 1014.40 1014.61
1020.72 1020.38 1020.05 1019.72 1019.43 1019.27 1019.14 1018.96 1018.72 1018.39 1017.06 1016.31 1016.05 1015.29 1014.63 1014.48 1014.48 1014.29 1014.25 1014.63 1015.07 1015.35 1015.45 1015.46 1015.33 1015.27 1015.24 1015.29 1015.47 1015.52 1015.89 1015.68 1015.26 1014.33 1013.36 1013.29 1013.09 1012.24 1011.78 1012.50 1012.90 1013.30 1013.81 1014.29
1020.23 1019.80 1019.35 1019.07 1018.84 1018.84 1018.84 1018.54 1018.45 1017.90 1016.63 1016.16 1015.26 1014.64 1014.68 1014.36 1014.58 1014.46 1014.73 1014.80 1015.12 1015.19 1015.41 1015.42 1014.97 1014.69 1014.39 1014.72 1014.76 1015.10 1015.43 1015.82 1015.97 1014.96 1014.12 1013.71 1012.19 1011.60 1011.68 1012.15 1012.50 1012.75 1013.42 1014.44
1019.45 1019.22 1018.91 1018.67 1018.28 1018.04 1017.96 1017.88 1017.97 1017.56 1016.65 1015.99 1015.36 1014.84 1014.60 1014.54 1014.18 1014.58 1014.98 1014.78 1015.16 1015.27 1015.60 1015.73 1015.03 1014.12 1013.83 1014.01 1013.87 1014.51 1015.11 1015.76 1015.93 1015.19 1014.59 1013.41 1012.53 1012.33 1012.21 1012.43 1013.63 1013.69 1014.04 1014.75
1019.22 1018.78 1018.38 1017.99 1017.74 1017.37 1017.22 1017.08 1016.98 1016.98 1016.51 1015.37 1015.22 1015.10 1014.86 1014.59 1014.38 1014.80 1014.71 1015.36 1015.61 1015.76 1016.03 1015.68 1015.14 1014.50 1014.00 1014.30 1014.60 1014.72 1015.10 1015.62 1016.16 1015.67 1015.04 1013.95 1013.17 1012.80 1012.56 1012.71 1014.34 1014.70 1014.54 1015.39
1018.63 1018.01 1017.67 1017.44 1017.15 1016.81 1016.84 1016.64 1016.28 1016.44 1015.81 1015.39 1015.38 1015.38 1015.12 1015.11 1015.18 1015.35 1015.23 1015.95 1016.33 1016.35 1016.17 1015.74 1015.05 1014.66 1014.42 1014.45 1014.37 1014.62 1015.09 1015.72 1016.12 1015.90 1015.43 1014.36 1013.59 1013.44 1013.33 1014.13 1015.92 1015.42 1015.58 1016.18
1017.83 1017.41 1017.13 1016.84 1016.48 1016.24 1016.32 1015.94 1015.99 1016.03 1015.95 1015.65 1015.58 1015.48 1015.30 1015.24 1015.48 1015.60 1015.97 1016.31 1016.48 1016.61 1016.28 1015.73 1015.27 1015.10 1014.94 1014.85 1014.54 1014.25 1014.57 1015.18 1015.65 1015.70 1015.53 1015.37 1014.42 1014.35 1014.95 1015.77 1015.90 1016.15 1016.38 1016.75
1017.15 1016.83 1016.50 1016.16 1015.96 1015.72 1015.47 1015.62 1015.46 1015.73 1016.40 1016.16 1015.99 1015.68 1015.69 1015.62 1015.48 1015.82 1016.00 1016.09 1016.08 1016.13 1016.22 1015.92 1015.67 1015.43 1015.30 1014.88 1014.86 1014.48 1014.90 1015.10 1015.62 1015.59 1015.38 1015.38 1015.49 1015.79 1016.21 1016.46 1016.66 1016.86 1017.09 1017.37
1016.31 1016.08 1015.86 1015.67 1015.52 1015.46 1015.56 1015.55 1015.97 1016.22 1016.54 1016.19 1016.10 1015.90 1016.31 1016.00 1016.29 1016.44 1016.33 1015.86 1015.85 1016.18 1016.28 1016.28 1016.12 1015.82 1015.42 1015.33 1015.12 1015.12 1014.96 1015.07 1015.80 1015.91 1015.48 1015.85 1016.17 1016.84 1017.21 1017.28 1017.47 1017.56 1017.71 1017.86
1015.64 1015.54 1015.43 1015.37 1015.32 1015.41 1015.54 1015.89 1016.03 1016.33 1016.77 1016.76 1016.48 1016.27 1016.68 1016.98 1016.69 1016.53 1016.47 1016.32 1016.24 1016.41 1016.49 1016.47 1016.24 1015.93 1015.55 1015.52 1015.57 1015.70 1015.40 1015.90 1016.06 1016.09 1015.96 1016.50 1017.00 1017.49 1017.89 1018.01 1018.05 1018.13 1018.32 1018.40
1015.34 1015.24 1015.14 1015.18 1015.40 1015.55 1015.87 1016.21 1016.47 1016.45 1017.15 1017.03 1016.60 1016.77 1017.41 1017.22 1017.05 1016.90 1016.75 1016.68 1016.64 1016.55 1016.53 1016.57 1016.19 1015.80 1015.98 1015.65 1015.80 1015.83 1015.72 1016.30 1016.79 1016.99 1017.32 1017.61 1018.08 1018.28 1018.41 1018.66 1018.57 1018.67 1018.94 1019.10
1015.25 1015.18 1015.18 1015.24 1015.37 1015.75 1016.08 1016.67 1017.02 1016.85 1017.04 1017.34 1017.01 1017.49 1017.59 1017.52 1017.36 1017.32 1017.22 1017.09 1016.95 1016.76 1016.58 1016.46 1016.36 1016.36 1016.53 1016.62 1016.46 1016.69 1016.74 1017.04 1017.36 1017.92 1018.17 1018.44 1018.70 1018.89 1018.98 1019.00 1019.14 1019.36 1019.69 1019.72
1015.31 1015.40 1015.56 1015.62 1015.84 1016.32 1016.98 1017.64 1017.50 1017.09 1017.33 1017.50 1017.52 1017.57 1017.94 1017.87 1017.69 1017.58 1017.54 1017.36 1017.50 1017.48 1017.16 1017.18 1017.24 1017.15 1017.12 1017.13 1017.27 1017.46 1017.40 1017.70 1018.05 1018.44 1018.71 1019.11 1019.26 1019.48 1019.64 1019.66 1019.75 1019.79 1020.09 1020.36
1015.73 1015.78 1016.00 1016.32 1016.63 1017.10 1017.67 1018.01 1017.44 1017.46 1017.71 1017.87 1018.24 1018.20 1018.18 1018.25 1018.12 1018.13 1018.21 1018.01 1018.01 1018.19 1018.17 1017.97 1018.16 1017.94 1017.95 1018.09 1017.87 1017.87 1018.06 1018.32 1018.62 1018.98 1019.22 1019.62 1019.72 1019.92 1020.17 1020.25 1020.36 1020.63 1020.95 1021.27
1016.60 1016.58 1016.71 1016.97 1017.56 1017.95 1018.46 1018.21 1018.22 1018.16 1018.64 1018.65 1018.98 1019.18 1019.05 1018.72 1018.68 1018.64 1018.63 1018.58 1018.56 1018.70 1018.77 1018.93 1019.12 1018.52 1018.55 1018.55 1018.59 1018.77 1018.72 1018.94 1019.12 1019.39 1019.69 1020.02 1020.29 1020.54 1020.73 1020.93 1021.18 1021.45 1021.77 1022.04
1017.14 1017.11 1017.47 1018.37 1018.83 1018.55 1018.49 1018.39 1018.67 1018.74 1018.93 1019.10 1019.71 1020.03 1019.86 1019.95 1019.30 1019.13 1019.27 1019.29 1019.33 1019.17 1019.75 1019.50 1019.31 1018.80 1018.56 1018.72 1018.88 1019.01 1019.06 1019.15 1019.49 1020.05 1020.40 1020.61 1020.96 1021.06 1021.19 1021.47 1021.92 1022.19 1022.41 1022.46
1018.08 1018.36 1018.95 1019.13 1018.84 1018.89 1018.95 1019.52 1019.95 1020.16 1020.27 1020.26 1020.61 1020.75 1020.81 1020.68 1020.56 1020.27 1020.17 1020.06 1019.79 1019.73 1020.00 1019.71 1019.29 1019.04 1019.04 1019.11 1019.26 1019.43 1019.69 1019.84 1020.10 1020.36 1020.64 1020.93 1021.28 1021.37 1021.60 1021.89 1022.00 1022.24 1022.50 1022.85
1018.99 1018.97 1019.32 1019.29 1019.32 1019.55 1019.98 1020.79 1021.12 1021.08 1021.21 1020.94 1021.04 1021.17 1021.20 1021.02 1020.94 1020.73 1020.49 1020.40 1020.16 1020.01 1019.91 1019.75 1019.37 1019.23 1019.41 1019.55 1019.68 1019.84 1020.13 1020.24 1020.49 1020.49 1021.01 1021.13 1021.24 1021.26 1021.33 1021.64 1021.93 1022.26 1022.60 1023.00
1019.23 1019.25 1019.80 1020.02 1020.33 1020.67 1021.21 1021.72 1021.63 1021.49 1021.25 1021.24 1021.22 1021.49 1021.58 1021.30 1021.34 1021.18 1021.09 1020.68 1020.39 1020.04 1019.92 1019.45 1019.24 1019.34 1019.67 1019.98 1020.07 1020.15 1020.13 1020.39 1020.58 1020.80 1020.93 1021.11 1021.22 1021.28 1021.40 1021.54 1021.68 1022.04 1022.52 1022.79
1019.90 1020.38 1020.64 1021.17 1021.21 1021.47 1021.53 1021.74 1021.75 1021.52 1021.38 1021.36 1021.56 1021.71 1021.97 1021.85 1021.82 1021.90 1021.68 1021.11 1020.71 1020.00 1019.55 1019.15 1019.27 1019.57 1019.99 1020.12 1020.35 1020.52 1020.67 1020.91 1021.13 1021.05 1020.93 1021.02 1021.09 1021.15 1021.31 1021.52 1021.45 1021.88 1022.41 1022.88
1020.49 1020.97 1021.48 1021.52 1021.47 1021.47 1021.57 1021.83 1021.86 1021.55 1021.53 1021.68 1021.79 1022.16 1022.43 1022.51 1022.63 1022.46 1022.13 1021.58 1020.71 1019.74 1019.23 1019.13 1019.41 1019.88 1020.15 1020.38 1020.60 1020.79 1020.90 1021.12 1021.21 1020.81 1020.84 1020.77 1020.82 1020.93 1021.05 1021.24 1021.27 1021.58 1022.07 1022.60
1020.92 1021.14 1021.39 1021.54 1021.76 1021.70 1021.75 1021.87 1021.88 1021.83 1021.87 1022.06 1022.37 1022.86 1023.02 1023.35 1023.33 1023.07 1022.38 1021.73 1020.59 1019.75 1019.41 1019.38 1019.60 1020.08 1020.17 1020.46 1020.68 1020.72 1020.54 1020.61 1020.60 1020.55 1020.48 1020.39 1020.42 1020.42 1020.47 1020.69 1021.08 1021.41 1021.74 1022.25
1021.39 1021.47 1021.34 1021.71 1021.83 1021.92 1021.85 1022.07 1022.13 1022.13 1022.37 1022.52 1022.98 1023.48 1023.54 1023.97 1023.59 1022.82 1021.95 1021.47 1020.65 1020.15 1019.89 1019.61 1019.62 1019.97 1020.13 1020.36 1020.25 1020.22 1020.26 1020.30 1020.23 1020.10 1020.00 1019.91 1019.88 1019.84 1020.09 1020.42 1020.65 1021.01 1021.28 1021.59
Wind_Speed
23 23 24 24 25 26 7 4 5 11 7 4 1 4 5 8 8 9 7 6 6 5 9 5 6 4 7 10 6 6 5 3 2 2 2 4 2 2 2 4 3 3 1 6
21 22 23 23 23 22 4 4 6 4 3 4 5 6 7 9 5 4 4 5 4 4 4 5 5 7 6 10 10 7 8 2 1 4 3 4 1 2 1 4 3 3 0 3
19 21 22 22 21 20 1 4 5 2 3 1 1 5 9 4 1 4 2 4 8 2 3 4 5 10 2 5 8 11 1 4 4 4 5 2 2 6 6 5 1 3 5 4
21 20 22 21 20 15 1 1 4 3 4 8 11 11 3 10 8 5 5 3 6 2 3 2 5 6 5 5 5 3 2 3 8 9 8 8 3 5 7 5 7 5 5 7
21 21 21 21 20 16 3 3 2 3 9 6 13 7 4 13 12 5 6 7 8 3 6 6 8 2 3 6 4 3 3 4 6 6 9 8 10 9 9 9 8 5 7 8
22 22 21 19 19 9 3 1 1 2 8 7 8 11 13 5 11 4 9 6 3 5 9 4 5 7 7 7 5 3 2 2 4 3 2 2 5 8 15 3 6 6 4 4
23 21 19 19 19 11 3 3 3 3 7 8 9 8 13 14 16 8 5 9 5 1 1 6 9 12 15 11 13 10 4 4 2 4 3 1 6 4 7 2 1 1 2 8
24 22 21 20 19 18 8 4 3 3 6 7 10 12 8 10 6 5 6 9 3 2 2 3 4 5 3 2 4 6 5 3 1 3 2 6 3 4 5 3 4 8 6 11
23 23 21 20 18 18 10 5 3 3 2 4 1 12 10 8 5 2 4 5 6 4 2 2 3 2 2 2 3 3 5 3 2 2 2 2 3 2 2 4 1 7 6 7
25 24 22 20 19 19 9 5 6 4 3 2 4 5 3 1 2 2 0 3 2 1 2 3 3 2 3 2 2 4 3 3 6 4 2 4 3 1 3 6 5 3 6 5
25 24 23 23 22 19 10 5 3 1 2 5 2 2 1 1 1 1 2 1 1 2 2 2 2 2 1 2 2 1 2 3 4 3 0 4 6 2 5 5 3 3 3 2
25 23 22 21 20 18 9 3 0 1 2 3 2 2 6 6 5 2 1 2 2 2 2 2 3 2 0 1 2 2 3 1 2 2 1 3 4 4 4 1 2 2 2 4
23 21 20 18 16 13 6 0 3 1 1 3 1 2 4 9 7 4 3 1 2 2 1 2 2 2 0 1 1 2 2 5 0 6 4 4 5 5 3 3 4 4 4 2
19 17 16 15 12 9 6 1 2 2 1 2 1 1 5 5 6 4 3 2 1 1 0 2 3 2 3 1 1 2 2 3 4 4 2 6 4 5 4 3 2 4 5 3
15 12 12 9 9 6 6 4 3 3 1 3 1 5 1 4 5 5 4 3 1 1 2 2 3 1 0 2 1 2 1 0 1 2 3 2 2 3 5 3 3 2 4 2
10 9 7 6 6 5 1 2 3 3 1 1 2 1 2 4 4 3 3 3 2 2 1 1 1 2 1 1 1 1 2 3 2 1 2 4 3 4 4 2 3 5 3 4
8 7 7 8 11 5 4 3 2 3 1 1 3 0 1 2 3 1 2 1 2 2 2 2 3 2 3 1 1 1 2 4 3 3 2 2 3 2 3 4 4 6 6 6
10 11 17 17 15 7 4 5 8 4 1 1 2 3 1 5 3 2 2 2 1 3 2 0 2 1 2 2 3 2 2 3 3 3 3 4 3 5 3 3 3 5 6 5
14 12 9 5 5 3 1 2 5 2 2 2 2 4 3 4 1 1 1 0 1 2 1 2 2 1 1 1 3 3 2 2 2 4 4 3 3 5 4 4 3 4 4 4
5 5 4 3 1 7 5 2 2 4 3 3 3 1 2 4 3 1 2 1 1 2 1 2 0 2 3 3 1 2 2 1 5 3 2 1 3 4 4 4 3 4 4 4
4 3 2 1 6 2 2 2 4 4 3 3 1 1 2 2 2 3 2 2 1 2 2 2 1 2 1 6 5 4 3 3 2 3 3 2 4 4 4 3 4 4 5 4
2 2 2 1 3 2 5 1 3 3 1 2 2 1 1 2 1 2 2 1 1 1 2 1 2 1 2 5 4 4 3 3 3 2 2 2 3 3 5 5 5 5 5 5
2 3 3 4 3 7 5 5 5 3 2 2 2 3 1 1 0 1 1 1 0 1 1 2 1 2 2 2 3 4 4 1 2 1 2 3 3 3 4 5 4 6 6 5
3 3 6 3 3 1 1 1 2 1 2 4 2 2 1 1 1 1 2 1 1 2 1 1 1 1 2 3 2 2 4 4 3 5 5 5 4 5 4 4 5 6 6 5
1 2 1 1 2 2 1 0 2 1 0 2 1 1 0 1 2 1 2 4 3 3 1 0 0 1 1 3 3 3 4 4 4 3 4 6 5 4 4 4 4 4 5 6
2 1 1 2 1 2 1 2 2 1 0 1 1 1 2 3 1 3 5 1 3 1 2 1 1 1 2 3 4 5 4 4 5 4 4 5 5 6 6 4 4 4 5 6
1 3 2 1 1 3 1 1 1 2 1 2 2 2 6 1 2 3 2 4 2 2 3 2 4 3 5 5 5 4 4 5 5 4 4 5 4 3 4 5 5 5 4 5
Wind_Direction
330 331 333 335 338 342 352 296 294 308 337 317 87 43 352 326 326 350 319 307 335 352 341 322 316 250 33 6 2 334 43 343 305 262 115 62 68 335 80 145 292 66 180 274
332 333 335 337 339 345 318 289 287 269 268 298 358 342 310 297 310 322 322 304 30 334 306 304 330 6 90 46 21 9 7 275 281 168 132 32 49 143 174 92 97 215 82 265
331 330 332 333 332 337 310 287 298 299 256 226 350 302 283 287 243 286 242 257 272 328 285 294 287 296 20 303 333 297 324 269 257 229 300 331 218 265 218 157 159 263 231 304
325 327 324 323 321 340 197 182 273 6 284 299 298 291 288 279 267 219 221 270 267 125 246 278 253 277 337 318 336 359 257 248 256 267 275 287 262 242 251 212 215 189 268 283
326 323 317 322 324 330 243 252 293 288 280 289 286 271 216 250 254 215 232 240 281 294 206 219 269 238 208 225 269 221 219 264 307 285 267 252 260 255 243 238 251 273 268 270
324 316 320 320 319 332 262 258 263 273 274 279 280 267 260 250 278 294 276 298 312 282 271 297 276 248 260 240 212 207 231 296 321 231 241 324 315 239 233 207 226 205 212 177
317 315 315 315 315 302 266 256 249 252 272 271 254 273 255 268 281 251 239 291 265 277 64 285 262 248 248 242 247 239 233 177 216 270 310 230 225 94 64 88 265 210 136 121
313 314 312 312 312 309 293 272 196 223 277 297 296 307 309 307 231 196 263 282 32 101 344 297 292 269 177 258 232 206 173 180 225 262 197 285 145 88 111 75 66 20 10 119
315 315 314 312 311 309 305 273 196 218 258 233 313 313 302 302 289 73 229 68 28 51 264 250 255 295 351 118 163 178 189 189 220 216 171 257 138 106 347 111 101 344 27 123
310 310 313 311 307 308 309 285 267 212 271 295 346 296 339 110 102 249 266 138 112 14 246 253 261 274 14 329 292 161 154 152 215 257 261 303 52 177 266 87 203 59 58 68
309 309 309 309 308 312 309 272 260 261 251 305 277 275 307 195 199 211 150 256 74 167 254 297 7 313 34 321 311 20 120 161 185 211 238 266 2 349 109 204 119 82 88 90
311 313 316 313 310 313 325 265 156 114 240 287 322 279 291 303 326 338 200 320 120 279 320 355 339 301 343 256 290 39 358 352 220 303 181 154 40 110 102 104 104 76 71 108
314 313 316 324 327 330 330 173 150 102 276 264 290 57 34 31 15 327 290 292 108 184 93 352 310 264 144 268 287 16 333 30 176 39 39 106 107 81 77 49 54 43 68 101
318 320 327 330 336 349 352 45 149 65 308 292 15 163 35 342 343 356 358 323 103 50 182 219 232 234 42 287 181 179 194 112 230 254 318 92 87 81 80 37 47 84 45 49
334 334 340 2 14 74 72 57 21 35 6 313 337 115 348 4 5 18 358 335 324 235 217 204 243 56 40 256 53 251 5 88 301 349 36 31 58 73 54 56 42 37 99 77
348 349 57 59 103 130 181 98 34 27 17 313 311 149 34 355 8 35 34 2 317 295 298 295 48 12 26 284 271 16 61 75 93 116 66 100 100 87 38 82 74 80 89 69
25 71 83 92 95 51 49 40 332 18 21 338 311 28 49 315 286 20 6 22 23 345 348 33 349 46 3 311 279 42 72 103 98 67 64 79 56 154 63 94 63 92 98 97
76 89 102 92 91 81 37 4 11 54 332 51 6 294 83 356 346 7 340 333 351 9 346 5 15 320 25 298 44 54 84 115 138 110 83 158 135 104 109 139 153 135 123 124
95 104 92 58 35 38 1 3 25 11 59 24 19 347 336 336 251 246 331 317 17 264 356 51 7 96 244 294 294 331 339 187 187 116 109 139 183 177 177 179 156 124 139 118
32 38 40 50 27 314 317 307 342 20 343 23 57 287 307 339 343 99 321 6 21 349 299 337 250 292 112 34 318 326 335 39 117 90 312 258 265 197 192 194 184 164 156 144
23 40 61 267 300 351 7 26 52 323 30 5 352 68 309 11 346 333 72 315 343 322 326 45 307 292 37 5 13 17 34 14 277 147 166 167 180 206 188 197 178 171 165 166
23 115 88 330 24 352 74 341 331 41 277 326 3 324 309 324 315 278 355 336 337 337 288 28 276 149 40 7 348 338 9 354 325 145 192 302 270 239 187 176 181 183 173 154
8 49 32 45 303 30 67 345 317 353 339 55 338 317 327 293 240 288 338 291 338 269 341 253 209 134 41 323 319 335 347 346 333 275 213 232 241 223 201 198 190 164 163 173
67 41 344 90 331 200 200 221 233 266 319 324 350 276 14 340 344 341 333 293 340 287 268 218 197 196 292 316 299 1 315 326 281 266 252 245 242 239 228 205 176 163 177 184
68 59 269 274 220 239 171 172 329 231 317 309 246 193 314 344 9 42 358 358 272 218 278 321 160 286 292 307 306 297 297 297 294 267 250 251 236 215 229 216 190 171 155 164
70 167 25 224 49 248 195 191 285 91 44 237 146 343 13 291 131 33 229 88 244 349 23 24 347 317 297 281 282 279 270 266 265 265 249 248 225 218 218 177 185 179 171 178
245 246 198 190 239 219 154 269 43 324 334 304 80 53 227 13 3 283 202 204 236 268 299 282 288 232 264 263 267 269 281 281 271 259 254 242 233 183 169 198 202 188 184 178